#timestamp,LO_Frequency,Hit,StdDev 
1582216895.2,286046978.4,P
1582216915.1,286046975.7,P
1582216916.0,286046975.7,P
1582216935.8,286046978.3,Y
1582216955.6,286047002.4,P
1582216975.5,286047000.9,N
1582216995.3,286047000.4,N
1582217015.2,286047000.4,N
1582217035.9,286047000.8,N
1582217055.7,286046999.7,N
1582217075.6,286047002.3,N
1582217095.4,286047002.4,N
1582217115.2,286047001.9,N
1582217135.1,286047002.2,N
1582217136.0,286047002.2,N
1582217155.8,286047002.2,N
1582217175.7,286047003.7,N
1582217195.5,286047003.4,N
1582217215.3,286047003.4,N
1582217235.2,286047004.2,N
1582217255.0,286047003.0,N
1582217255.9,286047003.0,N
1582217275.7,286047003.8,N
1582217295.6,286047005.6,N
1582217315.4,286047002.9,N
1582217335.3,286047003.0,N
1582217355.1,286047005.1,N
1582217375.8,286047005.1,N
1582217395.7,286047006.7,N
1582217415.5,286047007.0,N
1582217435.4,286047008.4,N
1582217455.2,286047009.9,N
1582217475.0,286047011.5,N
1582217475.9,286047011.5,N
1582217495.8,286047011.7,Y
1582217515.6,286047007.6,P
1582217535.5,286047006.7,P
1582217555.3,286047006.4,P
1582217575.1,286047006.6,Y
1582217595.9,286047002.3,P
1582217615.7,286047002.5,N
1582217635.6,286047002.0,N
1582217655.4,286047004.4,N
1582217675.2,286047001.3,N
1582217695.1,286047004.2,N
1582217696.0,286047004.2,N
1582217715.8,286047003.2,N
1582217735.6,286047006.0,Y
1582217755.5,286047002.6,P
1582217775.3,286047002.1,P
1582217795.2,286047001.5,N
1582217815.9,286047001.5,N
1582217835.7,286047002.5,Y
1582217855.6,286047000.6,P
1582217875.4,286047002.7,P
1582217895.2,286047000.0,N
1582217915.1,286047001.2,N
1582217916.0,286047001.2,N
1582217935.8,286046998.1,N
1582217955.7,286046999.1,N
1582217975.5,286046997.3,N
1582217995.3,286046997.5,N
